星链-36176(STARLINK-36176)

导读

STARLINK-36176是美国SpaceX星链星座的卫星之一,发射于2025年12月10日,属于星链低轨互联网星座组网卫星,承担全球互联网覆盖服务任务。星链星座通过大量低轨卫星部署,旨在为全球用户提供高速宽带接入,尤其服务偏远地区与通信基础设施薄弱区域,该卫星的发射是星链系统持续扩容的一部分。

基本信息
目录编号:
67026
目录名称:
STARLINK-36176
国际标识:
2025-293Z
轨道中心:
EARTH
卫星名称:
星链-36176
卫星全名:
星链-36176(STARLINK-36176)
卫星状态:
在轨 (已飞行185 天)
发射日期:
2025-12-10 UTC
国别 :
美国 (US)
星等 :
--
轨道信息
数据来源 国际轨道数据 AOE轨道数据
星历时间 2026-06-12T15:09:22+0800
22小时前
查看轨道信息
2026-06-12T01:00:00+0800
1天前
查看轨道信息
半长轴 6950.199km 6950.22km
偏心率 0.0004049 0.0003996
轨道倾角 70.000° 69.999°
近地点辐角 269.268° 270.688°
升交点赤经 215.733° 217.217°
平近点角 90.802° 148.733°
近地点 569.247km 569.305km
远地点 574.877km 574.861km
周期 96.107分钟 96.108分钟
每日圈数 14.983281 14.983213
详细信息
固有亮度:
5
最大亮度:
2.5
卫星平台:
Starlink V1.0
覆盖范围:
全球
运营商:
太空探索技术公司
运营商所在国:
美国
制造商(研发单位):
太空探索技术公司
制造商所在国:
美国
使用方式:
暂无
卫星简介
Starlink 计划是 SpaceX 推出的全球卫星互联网项目,通过发射低轨道卫星,为全球尤其是偏远地区提供高速、低延迟的互联网服务。自 2019 年起,Starlink 已部署数千颗卫星,旨在缩小全球数字鸿沟,推动互联网普及。该项目还为军事、航空等行业提供通信支持,带来广泛经济效益。
2D轨道图
3D轨道图
轨道高度分析图
轨道倾角分析图
轨道综合分析图
查看轨道综合分析图